TimePDT,TemperatureF,Dew PointF,Humidity,Sea Level PressureIn,VisibilityMPH,Wind Direction,Wind SpeedMPH,Gust SpeedMPH,PrecipitationIn,Events,Conditions,WindDirDegrees,DateUTC
12:15 AM,46.4,39.2,76,30.37,10.0,Calm,Calm,-,N/A,,Partly Cloudy,0,2014-04-29 07:15:00
12:35 AM,50.0,39.2,66,30.37,10.0,ESE,4.6,-,N/A,,Mostly Cloudy,110,2014-04-29 07:35:00
12:55 AM,50.0,41.0,71,30.38,10.0,North,-9999.0,-,N/A,,Mostly Cloudy,0,2014-04-29 07:55:00
1:15 AM,48.2,41.0,76,30.38,10.0,Calm,Calm,-,N/A,,Mostly Cloudy,0,2014-04-29 08:15:00
1:35 AM,50.0,41.0,71,30.38,10.0,ENE,4.6,-,N/A,,Mostly Cloudy,60,2014-04-29 08:35:00
2:15 AM,50.0,39.2,66,30.39,10.0,ESE,4.6,-,N/A,,Scattered Clouds,110,2014-04-29 09:15:00
2:35 AM,50.0,39.2,66,30.40,10.0,ENE,4.6,-,N/A,,Clear,60,2014-04-29 09:35:00
2:55 AM,50.0,39.2,66,30.40,10.0,Calm,Calm,-,N/A,,Partly Cloudy,0,2014-04-29 09:55:00
3:15 AM,48.2,41.0,76,30.40,10.0,Calm,Calm,-,N/A,,Scattered Clouds,0,2014-04-29 10:15:00
3:35 AM,48.2,41.0,76,30.41,10.0,Calm,Calm,-,N/A,,Scattered Clouds,0,2014-04-29 10:35:00
3:55 AM,48.2,41.0,76,30.41,10.0,Calm,Calm,-,N/A,,Partly Cloudy,0,2014-04-29 10:55:00
4:15 AM,48.2,41.0,76,30.42,10.0,Calm,Calm,-,N/A,,Partly Cloudy,0,2014-04-29 11:15:00
4:35 AM,46.4,41.0,81,30.43,10.0,Calm,Calm,-,N/A,,Partly Cloudy,0,2014-04-29 11:35:00
4:55 AM,46.4,41.0,81,30.43,10.0,Calm,Calm,-,N/A,,Clear,0,2014-04-29 11:55:00
5:15 AM,46.4,39.2,76,30.43,10.0,Calm,Calm,-,N/A,,Clear,0,2014-04-29 12:15:00
5:35 AM,48.2,39.2,71,30.44,10.0,Calm,Calm,-,N/A,,Clear,0,2014-04-29 12:35:00
5:55 AM,46.4,41.0,81,30.44,10.0,Calm,Calm,-,N/A,,Partly Cloudy,0,2014-04-29 12:55:00
6:15 AM,48.2,39.2,71,30.45,10.0,Calm,Calm,-,N/A,,Mostly Cloudy,0,2014-04-29 13:15:00
6:35 AM,48.2,39.2,71,30.45,9.0,Calm,Calm,-,N/A,,Overcast,0,2014-04-29 13:35:00
6:55 AM,48.2,39.2,71,30.46,10.0,Calm,Calm,-,N/A,,Overcast,0,2014-04-29 13:55:00
7:15 AM,48.2,39.2,71,30.46,10.0,Calm,Calm,-,N/A,,Mostly Cloudy,0,2014-04-29 14:15:00
7:35 AM,48.2,39.2,71,30.47,10.0,Calm,Calm,-,N/A,,Mostly Cloudy,0,2014-04-29 14:35:00
7:55 AM,50.0,39.2,66,30.48,9.0,Calm,Calm,-,N/A,,Partly Cloudy,0,2014-04-29 14:55:00
8:15 AM,50.0,39.2,66,30.49,10.0,Calm,Calm,-,N/A,,Scattered Clouds,0,2014-04-29 15:15:00
8:35 AM,50.0,39.2,66,30.49,10.0,Calm,Calm,-,N/A,,Partly Cloudy,0,2014-04-29 15:35:00
8:55 AM,50.0,39.2,66,30.50,10.0,Calm,Calm,-,N/A,,Clear,0,2014-04-29 15:55:00
9:15 AM,50.0,41.0,71,30.50,10.0,Calm,Calm,-,N/A,,Partly Cloudy,0,2014-04-29 16:15:00
9:35 AM,50.0,39.2,66,30.51,9.0,Calm,Calm,-,N/A,,Mostly Cloudy,0,2014-04-29 16:35:00
9:55 AM,51.8,41.0,67,30.51,10.0,Calm,Calm,-,N/A,,Scattered Clouds,0,2014-04-29 16:55:00
10:15 AM,53.6,41.0,62,30.51,9.0,Calm,Calm,-,N/A,,Clear,0,2014-04-29 17:15:00
10:35 AM,53.6,39.2,58,30.51,10.0,ENE,3.5,-,N/A,,Clear,60,2014-04-29 17:35:00
10:55 AM,55.4,39.2,54,30.51,10.0,ENE,5.8,-,N/A,,Clear,70,2014-04-29 17:55:00
11:15 AM,55.4,39.2,54,30.51,9.0,ENE,4.6,-,N/A,,Clear,60,2014-04-29 18:15:00
11:35 AM,57.2,41.0,55,30.51,10.0,NE,3.5,-,N/A,,Clear,40,2014-04-29 18:35:00
11:55 AM,55.4,41.0,58,30.50,10.0,North,5.8,-,N/A,,Clear,10,2014-04-29 18:55:00
12:15 PM,55.4,41.0,58,30.50,10.0,North,4.6,-,N/A,,Partly Cloudy,360,2014-04-29 19:15:00
12:35 PM,57.2,42.8,59,30.50,10.0,North,5.8,-,N/A,,Partly Cloudy,350,2014-04-29 19:35:00
12:55 PM,55.4,44.6,67,30.50,10.0,North,6.9,-,N/A,,Clear,350,2014-04-29 19:55:00
1:15 PM,55.4,44.6,67,30.50,10.0,NNW,8.1,-,N/A,,Clear,340,2014-04-29 20:15:00
1:35 PM,55.4,42.8,63,30.49,10.0,NNW,8.1,-,N/A,Rain,Light Rain,340,2014-04-29 20:35:00
1:55 PM,55.4,42.8,63,30.49,9.0,NNW,6.9,-,N/A,Rain,Light Rain,340,2014-04-29 20:55:00
2:15 PM,55.4,42.8,63,30.49,9.0,NNW,6.9,-,N/A,Rain,Light Rain,330,2014-04-29 21:15:00
2:35 PM,55.4,44.6,67,30.49,10.0,North,6.9,-,N/A,,Clear,350,2014-04-29 21:35:00
2:55 PM,55.4,44.6,67,30.49,9.0,NNW,8.1,-,N/A,,Clear,340,2014-04-29 21:55:00
3:15 PM,55.4,42.8,63,30.48,10.0,North,8.1,-,N/A,,Clear,350,2014-04-29 22:15:00
3:35 PM,55.4,42.8,63,30.48,10.0,NNW,6.9,-,N/A,,Clear,340,2014-04-29 22:35:00
3:55 PM,55.4,42.8,63,30.47,10.0,North,6.9,-,N/A,,Clear,350,2014-04-29 22:55:00
4:15 PM,55.4,44.6,67,30.46,8.0,North,5.8,-,N/A,,Clear,350,2014-04-29 23:15:00
4:35 PM,55.4,44.6,67,30.46,10.0,North,5.8,-,N/A,,Clear,360,2014-04-29 23:35:00
4:55 PM,57.2,42.8,59,30.45,9.0,North,5.8,-,N/A,,Clear,350,2014-04-29 23:55:00
5:15 PM,57.2,42.8,59,30.44,10.0,North,6.9,-,N/A,,Clear,350,2014-04-30 00:15:00
5:35 PM,57.2,41.0,55,30.44,10.0,NNW,6.9,-,N/A,,Clear,340,2014-04-30 00:35:00
5:55 PM,57.2,41.0,55,30.43,10.0,North,5.8,-,N/A,,Clear,350,2014-04-30 00:55:00
6:15 PM,57.2,41.0,55,30.42,10.0,Calm,Calm,-,N/A,,Clear,0,2014-04-30 01:15:00
6:35 PM,57.2,41.0,55,30.42,10.0,North,3.5,-,N/A,,Clear,360,2014-04-30 01:35:00
6:55 PM,57.2,39.2,51,30.41,10.0,Calm,Calm,-,N/A,,Clear,0,2014-04-30 01:55:00
7:15 PM,57.2,39.2,51,30.41,10.0,Calm,Calm,-,N/A,,Clear,0,2014-04-30 02:15:00
7:35 PM,55.4,39.2,54,30.41,10.0,Calm,Calm,-,N/A,,Clear,0,2014-04-30 02:35:00
7:55 PM,55.4,39.2,54,30.40,10.0,Calm,Calm,-,N/A,,Clear,0,2014-04-30 02:55:00
8:15 PM,53.6,42.8,67,30.40,10.0,Calm,Calm,-,N/A,,Clear,0,2014-04-30 03:15:00
8:35 PM,51.8,41.0,67,30.40,10.0,Calm,Calm,-,N/A,,Clear,0,2014-04-30 03:35:00
8:55 PM,51.8,41.0,67,30.40,10.0,Calm,Calm,-,N/A,,Clear,0,2014-04-30 03:55:00
9:15 PM,50.0,41.0,71,30.41,10.0,Calm,Calm,-,N/A,,Clear,0,2014-04-30 04:15:00
9:35 PM,50.0,41.0,71,30.41,10.0,Calm,Calm,-,N/A,,Clear,0,2014-04-30 04:35:00
9:55 PM,50.0,41.0,71,30.41,10.0,Calm,Calm,-,N/A,,Clear,0,2014-04-30 04:55:00
10:20 PM,48.2,41.0,76,30.41,10.0,Calm,Calm,-,N/A,,Clear,0,2014-04-30 05:20:00
10:35 PM,48.2,41.0,76,30.41,10.0,Calm,Calm,-,N/A,,Clear,0,2014-04-30 05:35:00
10:55 PM,48.2,41.0,76,30.41,10.0,Calm,Calm,-,N/A,,Clear,0,2014-04-30 05:55:00
11:15 PM,48.2,41.0,76,30.42,10.0,Calm,Calm,-,N/A,,Clear,0,2014-04-30 06:15:00
11:35 PM,48.2,44.6,87,30.41,10.0,Calm,Calm,-,N/A,,Clear,0,2014-04-30 06:35:00
11:55 PM,50.0,44.6,82,30.41,10.0,Calm,Calm,-,N/A,,Clear,0,2014-04-30 06:55:00